Day,Count,total
1/12/19,3,
1/18/19,3,6
2/1/19,1,7
2/4/19,1,8
2/5/19,1,9
2/8/19,2,11
2/9/19,2,13
2/10/19,2,15
2/11/19,1,16
2/12/19,8,24
2/13/19,4,28
2/14/19,1,29
2/15/19,1,30
2/16/19,2,32
2/18/19,2,34
2/21/19,1,35
2/23/19,1,36
2/24/19,2,38
2/25/19,15,53
2/26/19,11,64
2/27/19,4,68
2/28/19,2,70
3/1/19,8,78
3/2/19,5,83
3/3/19,8,91
3/4/19,3,94
3/5/19,4,98
3/6/19,1,99
3/7/19,4,103
3/8/19,4,107
3/9/19,1,108
3/10/19,1,109
3/11/19,2,111
3/12/19,4,115
3/15/19,1,116
3/16/19,1,117
3/17/19,2,119
3/18/19,1,120
3/19/19,1,121
3/20/19,3,124
3/21/19,1,125
3/23/19,1,126
3/24/19,1,127
3/25/19,1,128
3/27/19,7,135
3/28/19,3,138
3/29/19,6,144
3/31/19,1,145
4/1/19,2,147
4/2/19,1,148
4/3/19,1,149
4/4/19,2,151
4/5/19,1,152
4/6/19,1,153
4/7/19,1,154
4/8/19,1,155
4/9/19,2,157
4/10/19,4,161
4/11/19,1,162
4/12/19,3,165
4/13/19,1,166
4/16/19,1,167
4/19/19,2,169
4/23/19,1,170
4/24/19,3,173
4/25/19,1,174
5/1/19,1,175
5/3/19,1,176
5/4/19,1,177
5/6/19,2,179
5/13/19,1,180
5/14/19,3,183
5/18/19,3,186
5/25/19,1,187
5/26/19,23,210
5/27/19,19,229
5/28/19,60,289
5/29/19,92,381
5/30/19,35,416
5/31/19,30,446
6/1/19,18,464
6/2/19,7,471
6/3/19,13,484
6/4/19,9,493
6/5/19,11,504
6/6/19,11,515
6/7/19,7,522
6/8/19,10,532
6/9/19,7,539
6/10/19,11,550
6/11/19,6,556
6/12/19,8,564
6/13/19,3,567
6/14/19,8,575
6/15/19,5,580
6/16/19,9,589
6/17/19,18,607
6/18/19,8,615
6/19/19,6,621
6/20/19,8,629
6/21/19,9,638
6/22/19,4,642
6/23/19,14,656
6/24/19,8,664
6/25/19,8,672
6/26/19,11,683
6/27/19,7,690
6/28/19,6,696
6/29/19,4,700
6/30/19,5,705
7/1/19,13,718
7/2/19,9,727
7/3/19,8,735
7/4/19,7,742
7/5/19,1,743
7/6/19,4,747
7/7/19,3,750
7/8/19,6,756
7/9/19,6,762
7/10/19,6,768
7/11/19,12,780
7/12/19,12,792
7/13/19,9,801
7/14/19,13,814
7/15/19,10,824
7/16/19,6,830
7/17/19,10,840
7/18/19,2,842
7/19/19,4,846
7/20/19,2,848
7/21/19,3,851
7/22/19,4,855
7/23/19,4,859
7/24/19,4,863
7/25/19,4,867
7/26/19,3,870
7/27/19,1,871
7/28/19,4,875
7/29/19,4,879
7/30/19,5,884
7/31/19,3,887
8/1/19,4,891
8/2/19,4,895
8/3/19,2,897
8/4/19,3,900
8/5/19,8,908
8/6/19,7,915
8/7/19,2,917
8/8/19,4,921
8/9/19,3,924
8/10/19,3,927
8/11/19,3,930
8/12/19,3,933
8/13/19,2,935
8/14/19,5,940
8/15/19,7,947
8/16/19,6,953
8/17/19,5,958
8/18/19,5,963
8/19/19,8,971
8/20/19,6,977
8/21/19,3,980
8/22/19,3,983
8/23/19,2,985
8/24/19,3,988
8/25/19,4,992
8/26/19,5,997
8/27/19,7,1004
8/28/19,2,1006
8/29/19,6,1012
8/30/19,3,1015
8/31/19,6,1021
9/1/19,3,1024
9/2/19,10,1034
9/3/19,1,1035
9/4/19,4,1039
9/5/19,2,1041
9/6/19,5,1046
9/7/19,3,1049
9/8/19,2,1051
9/9/19,7,1058
9/10/19,5,1063
9/11/19,4,1067
9/12/19,4,1071
9/13/19,14,1085
9/14/19,3,1088
9/15/19,9,1097
9/16/19,5,1102
9/17/19,9,1111
9/18/19,2,1113
9/19/19,8,1121
9/20/19,5,1126
9/21/19,4,1130
9/22/19,2,1132
9/23/19,6,1138
9/24/19,10,1148
9/25/19,2,1150
9/26/19,4,1154
9/27/19,6,1160
9/28/19,5,1165
9/29/19,14,1179
9/30/19,5,1184
10/1/19,8,1192
10/2/19,11,1203
10/3/19,2,1205
10/4/19,2,1207
10/5/19,4,1211
10/6/19,4,1215
10/7/19,5,1220
10/8/19,8,1228
10/9/19,13,1241
10/10/19,4,1245
10/11/19,16,1261
10/12/19,5,1266
10/13/19,6,1272
10/14/19,11,1283
10/15/19,7,1290
10/16/19,7,1297
10/17/19,4,1301
10/18/19,3,1304
10/19/19,6,1310
10/21/19,3,1313
10/22/19,6,1319
10/23/19,5,1324
10/24/19,6,1330
10/25/19,5,1335
10/27/19,5,1340
10/28/19,1,1341
10/29/19,5,1346
10/30/19,5,1351
10/31/19,5,1356
11/1/19,3,1359
11/2/19,3,1362
11/3/19,6,1368
11/4/19,8,1376
11/5/19,6,1382
11/6/19,6,1388
11/7/19,3,1391
11/8/19,4,1395
11/9/19,2,1397
11/11/19,6,1403
11/12/19,5,1408
11/13/19,4,1412
11/14/19,6,1418
11/15/19,7,1425
11/16/19,2,1427
11/17/19,2,1429
11/18/19,8,1437
11/19/19,8,1445
11/20/19,2,1447
11/21/19,5,1452
11/22/19,5,1457
11/23/19,1,1458
11/24/19,4,1462
11/25/19,8,1470
11/26/19,9,1479
11/27/19,9,1488
11/28/19,6,1494
11/29/19,3,1497
11/30/19,5,1502
12/1/19,3,1505
12/2/19,5,1510
12/3/19,6,1516
12/4/19,3,1519
12/5/19,3,1522
12/6/19,5,1527
12/7/19,5,1532
12/8/19,1,1533
12/9/19,3,1536
12/10/19,1,1537
12/11/19,5,1542
12/12/19,6,1548
12/13/19,3,1551
12/14/19,2,1553
12/15/19,6,1559
12/16/19,2,1561
12/17/19,8,1569
12/18/19,6,1575
12/19/19,6,1581
12/20/19,3,1584
12/21/19,5,1589
12/22/19,2,1591
12/23/19,2,1593
12/24/19,4,1597
12/25/19,5,1602
12/26/19,7,1609
12/27/19,8,1617
12/28/19,5,1622
12/29/19,6,1628
12/30/19,5,1633
12/31/19,3,1636
1/1/20,6,1642
1/2/20,16,1658
1/3/20,9,1667
1/4/20,4,1671
1/5/20,7,1678
1/6/20,2,1680
1/7/20,11,1691
1/8/20,5,1696
1/9/20,18,1714
1/10/20,11,1725
1/11/20,6,1731
1/12/20,6,1737
1/13/20,9,1746
1/14/20,7,1753
1/15/20,7,1760
1/16/20,9,1769
1/17/20,7,1776
1/18/20,8,1784
1/19/20,11,1795
1/20/20,5,1800
1/21/20,7,1807
1/22/20,10,1817
1/23/20,9,1826
1/24/20,5,1831
1/25/20,5,1836
1/26/20,4,1840
1/27/20,7,1847
1/28/20,9,1856
1/29/20,3,1859
1/30/20,6,1865
1/31/20,3,1868
2/1/20,3,1871
2/2/20,4,1875
2/3/20,6,1881
2/4/20,3,1884
2/5/20,5,1889
2/6/20,9,1898
2/7/20,7,1905
2/8/20,5,1910
2/9/20,6,1916
2/10/20,7,1923
2/11/20,7,1930
2/12/20,15,1945
2/13/20,4,1949
2/14/20,3,1952
2/15/20,10,1962
2/16/20,6,1968
2/17/20,4,1972
2/18/20,10,1982
2/19/20,12,1994
2/20/20,7,2001
2/21/20,8,2009
2/22/20,5,2014
2/23/20,8,2022
2/24/20,8,2030
2/25/20,6,2036
2/26/20,5,2041
2/27/20,7,2048
2/28/20,4,2052
2/29/20,4,2056
3/1/20,4,2060
3/2/20,8,2068
3/3/20,8,2076
3/4/20,12,2088
3/5/20,9,2097
3/6/20,5,2102
3/7/20,7,2109
3/8/20,4,2113
3/9/20,9,2122
3/10/20,9,2131
3/11/20,7,2138
3/12/20,8,2146
3/13/20,4,2150
3/14/20,6,2156
3/15/20,5,2161
3/16/20,5,2166
3/17/20,9,2175
3/18/20,12,2187
3/19/20,8,2195
3/20/20,3,2198
3/21/20,4,2202
3/22/20,5,2207
3/23/20,10,2217
3/24/20,5,2222
3/25/20,7,2229
3/26/20,7,2236
3/27/20,10,2246
3/28/20,9,2255
3/29/20,8,2263
3/30/20,11,2274
3/31/20,3,2277
4/1/20,3,2280
4/2/20,7,2287
4/3/20,9,2296
4/4/20,8,2304
4/5/20,8,2312
4/6/20,11,2323
4/7/20,10,2333
4/8/20,12,2345
4/9/20,4,2349
4/10/20,11,2360
4/11/20,6,2366
4/12/20,8,2374
4/13/20,11,2385
4/14/20,12,2397
4/15/20,5,2402
4/16/20,10,2412
4/17/20,11,2423
4/18/20,13,2436
4/19/20,11,2447
4/20/20,9,2456
4/21/20,10,2466
4/22/20,7,2473
4/23/20,9,2482
4/24/20,8,2490
4/25/20,10,2500
4/26/20,15,2515
4/27/20,10,2525
4/28/20,10,2535
4/29/20,7,2542
4/30/20,10,2552
5/1/20,10,2562
5/2/20,9,2571
5/3/20,4,2575
5/4/20,8,2583
5/5/20,12,2595
5/6/20,12,2607
5/7/20,11,2618
5/8/20,6,2624
5/9/20,9,2633
5/10/20,7,2640
5/11/20,5,2645
5/12/20,6,2651
5/13/20,6,2657
5/14/20,9,2666
5/15/20,9,2675
5/16/20,9,2684
5/17/20,10,2694
5/18/20,10,2704
5/19/20,5,2709
5/20/20,7,2716
5/21/20,13,2729
5/22/20,9,2738
5/23/20,4,2742
5/24/20,10,2752
5/25/20,9,2761
5/26/20,6,2767
5/27/20,2,2769